| time (UTC) | temp C | wind direction | speed KPH | gust KPH | rain 1hr cm | rain 24hr cm | rain mn cm | humidity % | barometer mb |
| 20260505171540 | 27 | 252 | 6.4 | 25.7 | 0.00 | 0.03 | 0.03 | 43 | 1007.3 |
| 20260505170036 | 26 | 211 | 8.0 | 24.1 | 0.00 | 0.03 | 0.03 | 42 | 1007.5 |
| 20260505164532 | 26 | 229 | 4.8 | 32.2 | 0.00 | 0.03 | 0.03 | 46 | 1007.7 |
| 20260505163029 | 26 | 304 | 6.4 | 17.7 | 0.00 | 0.03 | 0.03 | 47 | 1007.8 |
| 20260505161615 | 26 | 231 | 6.4 | 25.7 | 0.00 | 0.03 | 0.03 | 47 | 1008.1 |
| 20260505153046 | 24 | 248 | 0.0 | 17.7 | 0.00 | 0.03 | 0.03 | 54 | 1008.5 |
| 20260505151546 | 23 | 240 | 6.4 | 20.9 | 0.00 | 0.03 | 0.03 | 51 | 1008.6 |
| 20260505124514 | 18 | 257 | 0.0 | 17.7 | 0.00 | 0.03 | 0.03 | 68 | 1009.5 |
| 20260505123002 | 18 | 235 | 0.0 | 14.5 | 0.00 | 0.03 | 0.03 | 70 | 1009.2 |
| 20260505121558 | 17 | 284 | 0.0 | 8.0 | 0.00 | 0.03 | 0.03 | 73 | 1009.1 |
| 20260505120109 | 16 | 269 | 0.0 | 0.0 | 0.00 | 0.03 | 0.03 | 78 | 1009.2 |
| 20260505114555 | 14 | 278 | 0.0 | 0.0 | 0.00 | 0.03 | 0.03 | 84 | 1009.3 |
| 20260505113054 | 13 | 277 | 0.0 | 0.0 | 0.00 | 0.03 | 0.03 | 86 | 1009.0 |
| 20260505111550 | 12 | 277 | 0.0 | 0.0 | 0.00 | 0.03 | 0.03 | 88 | 1009.0 |
| 20260505101514 | 11 | 277 | 0.0 | 0.0 | 0.00 | 0.03 | 0.03 | 86 | 1008.5 |
| 20260505100043 | 11 | 277 | 0.0 | 0.0 | 0.00 | 0.03 | 0.03 | 85 | 1008.6 |
| 20260505094541 | 11 | 277 | 0.0 | 0.0 | 0.00 | 0.03 | 0.03 | 85 | 1008.5 |
| 20260505093035 | 12 | 277 | 0.0 | 0.0 | 0.00 | 0.03 | 0.03 | 85 | 1008.7 |
| 20260505091533 | 12 | 279 | 0.0 | 0.0 | 0.00 | 0.03 | 0.03 | 84 | 1008.6 |
| 20260505090036 | 13 | 279 | 0.0 | 0.0 | 0.03 | 0.03 | 0.03 | 82 | 1008.6 |
| 20260505084527 | 13 | 279 | 0.0 | 0.0 | 0.03 | 0.03 | 0.03 | 79 | 1008.6 |
| 20260505083019 | 14 | 279 | 0.0 | 0.0 | 0.03 | 0.03 | 0.03 | 76 | 1008.4 |
| 20260505081518 | 16 | 279 | 0.0 | 9.7 | 0.03 | 0.03 | 0.03 | 70 | 1008.5 |
| 20260505080013 | 16 | 259 | 0.0 | 9.7 | 0.00 | 0.00 | 0.00 | 65 | 1008.2 |
| 20260505074511 | 16 | 236 | 0.0 | 0.0 | 0.00 | 0.00 | 0.00 | 65 | 1007.9 |
| 20260505073010 | 16 | 250 | 0.0 | 0.0 | 0.00 | 0.00 | 0.00 | 65 | 1008.0 |
| 20260505071518 | 16 | 240 | 0.0 | 8.0 | 0.00 | 0.00 | 0.00 | 65 | 1008.2 |
| 20260505070005 | 16 | 249 | 0.0 | 0.0 | 0.00 | 0.00 | 0.00 | 64 | 1008.2 |
| 20260505064510 | 16 | 223 | 1.6 | 9.7 | 0.00 | 0.00 | 0.00 | 64 | 1008.2 |
| 20260505063100 | 15 | 246 | 0.0 | 0.0 | 0.00 | 0.00 | 0.00 | 64 | 1008.4 |
| 20260505061602 | 15 | 270 | 0.0 | 0.0 | 0.00 | 0.00 | 0.00 | 64 | 1008.3 |
| 20260505060058 | 15 | 275 | 0.0 | 0.0 | 0.00 | 0.00 | 0.00 | 63 | 1008.3 |
| 20260505054558 | 15 | 255 | 0.0 | 0.0 | 0.00 | 0.00 | 0.00 | 63 | 1008.3 |
| 20260505053032 | 15 | 258 | 0.0 | 0.0 | 0.00 | 0.00 | 0.00 | 61 | 1008.3 |
| 20260505051533 | 16 | 262 | 0.0 | 0.0 | 0.00 | 0.00 | 0.00 | 60 | 1008.3 |
| 20260505041517 | 16 | 235 | 0.0 | 0.0 | 0.00 | 0.00 | 0.00 | 57 | 1008.2 |
| 20260505040019 | 17 | 234 | 0.0 | 0.0 | 0.00 | 0.00 | 0.00 | 55 | 1008.1 |
| 20260505034512 | 17 | 236 | 0.0 | 1.6 | 0.00 | 0.00 | 0.00 | 55 | 1007.9 |
| 20260505033011 | 17 | 261 | 0.0 | 9.7 | 0.00 | 0.00 | 0.00 | 52 | 1008.0 |
| 20260505031510 | 18 | 253 | 0.0 | 9.7 | 0.00 | 0.00 | 0.00 | 51 | 1008.0 |
| 20260505030021 | 18 | 243 | 0.0 | 9.7 | 0.00 | 0.00 | 0.00 | 51 | 1008.1 |
| 20260505024507 | 18 | 205 | 0.0 | 9.7 | 0.00 | 0.00 | 0.00 | 49 | 1008.2 |
| 20260505023007 | 18 | 189 | 0.0 | 19.3 | 0.00 | 0.00 | 0.00 | 49 | 1008.1 |
| 20260505021506 | 18 | 226 | 0.0 | 6.4 | 0.00 | 0.00 | 0.00 | 49 | 1008.4 |
| 20260505020004 | 18 | 186 | 3.2 | 11.3 | 0.00 | 0.00 | 0.00 | 48 | 1008.3 |
| 20260505014505 | 18 | 180 | 6.4 | 16.1 | 0.00 | 0.00 | 0.00 | 47 | 1008.3 |
| 20260505013003 | 19 | 178 | 3.2 | 20.9 | 0.00 | 0.00 | 0.00 | 47 | 1008.2 |
| 20260505011506 | 18 | 165 | 3.2 | 16.1 | 0.00 | 0.00 | 0.00 | 47 | 1008.1 |
| 20260505010002 | 18 | 205 | 4.8 | 16.1 | 0.00 | 0.00 | 0.00 | 47 | 1008.0 |
| 20260505004534 | 18 | 217 | 1.6 | 16.1 | 0.00 | 0.00 | 0.00 | 48 | 1007.9 |
| 20260505003031 | 18 | 198 | 4.8 | 17.7 | 0.00 | 0.00 | 0.00 | 48 | 1007.8 |
| 20260505001529 | 19 | 207 | 6.4 | 20.9 | 0.00 | 0.00 | 0.00 | 47 | 1007.8 |
| 20260505000029 | 19 | 182 | 3.2 | 19.3 | 0.00 | 0.00 | 0.00 | 46 | 1007.7 |
| 20260504234528 | 20 | 200 | 6.4 | 20.9 | 0.00 | 0.00 | 0.00 | 46 | 1007.6 |
| 20260504233027 | 20 | 182 | 9.7 | 25.7 | 0.00 | 0.00 | 0.00 | 45 | 1007.5 |
| 20260504231525 | 20 | 176 | 8.0 | 22.5 | 0.00 | 0.00 | 0.00 | 44 | 1007.3 |
| 20260504230027 | 20 | 251 | 4.8 | 14.5 | 0.00 | 0.00 | 0.00 | 45 | 1007.2 |
| 20260504224525 | 21 | 188 | 8.0 | 29.0 | 0.00 | 0.00 | 0.00 | 44 | 1007.1 |
| 20260504223023 | 21 | 193 | 3.2 | 16.1 | 0.00 | 0.00 | 0.00 | 44 | 1007.0 |
| 20260504221553 | 22 | 211 | 3.2 | 12.9 | 0.00 | 0.00 | 0.00 | 40 | 1007.2 |
| 20260504220109 | 22 | 186 | 4.8 | 16.1 | 0.00 | 0.00 | 0.00 | 40 | 1007.2 |
| 20260504214551 | 22 | 257 | 4.8 | 19.3 | 0.00 | 0.00 | 0.00 | 40 | 1007.4 |
| 20260504213051 | 22 | 209 | 0.0 | 19.3 | 0.00 | 0.00 | 0.00 | 39 | 1007.4 |
| 20260504211542 | 22 | 220 | 6.4 | 19.3 | 0.00 | 0.00 | 0.00 | 39 | 1007.4 |
| 20260504210041 | 22 | 250 | 4.8 | 25.7 | 0.00 | 0.00 | 0.00 | 41 | 1007.7 |
| 20260504204537 | 22 | 263 | 4.8 | 20.9 | 0.00 | 0.00 | 0.00 | 39 | 1007.6 |
| 20260504203035 | 22 | 248 | 6.4 | 24.1 | 0.00 | 0.00 | 0.00 | 41 | 1007.8 |
| 20260504201533 | 22 | 199 | 8.0 | 30.6 | 0.00 | 0.00 | 0.00 | 40 | 1008.1 |
| 20260504200039 | 22 | 241 | 9.7 | 33.8 | 0.00 | 0.00 | 0.00 | 39 | 1008.1 |
| 20260504194529 | 22 | 242 | 9.7 | 24.1 | 0.00 | 0.00 | 0.00 | 40 | 1008.1 |
| 20260504193027 | 22 | 194 | 3.2 | 30.6 | 0.00 | 0.00 | 0.00 | 38 | 1008.3 |
| 20260504191537 | 22 | 276 | 6.4 | 19.3 | 0.00 | 0.00 | 0.00 | 42 | 1008.4 |
| 20260504190024 | 21 | 187 | 11.3 | 20.9 | 0.00 | 0.00 | 0.00 | 39 | 1008.6 |
| 20260504184610 | 21 | 280 | 8.0 | 25.7 | 0.00 | 0.00 | 0.00 | 42 | 1008.8 |
| 20260504183151 | 21 | 237 | 8.0 | 22.5 | 0.00 | 0.00 | 0.00 | 41 | 1009.0 |
| 20260504181548 | 21 | 223 | 9.7 | 24.1 | 0.00 | 0.00 | 0.00 | 41 | 1009.1 |
| 20260504180041 | 21 | 190 | 3.2 | 30.6 | 0.00 | 0.00 | 0.00 | 45 | 1009.2 |
| 20260504174540 | 21 | 259 | 6.4 | 25.7 | 0.00 | 0.00 | 0.00 | 42 | 1009.5 |
| 20260504173037 | 20 | 254 | 4.8 | 32.2 | 0.00 | 0.00 | 0.00 | 44 | 1009.9 |